Location: Landeleau
(48.2273°N, 3.7285°W)
Time: 09:23:25
(UTC+00:00)

Cosmos 1953 - Pass Details

Date: 30 March 2020
Orbit: 540 x 557 km, 82.5° (Epoch: 24 May)

Event Time Altitude Azimuth Distance (km) Brightness Sun altitude
Exits shadow 20:22:52 13° 177° (S) 1,604 4.4 -16.7°
Maximum altitude 20:26:18 66° 97° (E) 594 2.2 -17.2°
Drops below altitude 10° 20:30:16 10° 15° (NNE) 1,820 5.1 -17.8°
Sets 20:32:27 0° 12° (NNE) 2,720 6.1 -18.1°
